Time,TemperatureF,DewpointF,PressureIn,WindDirection,WindDirectionDegrees,WindSpeedMPH,WindSpeedGustMPH,Humidity,HourlyPrecipIn,Conditions,Clouds,dailyrainin,SoftwareType,DateUTC
2013-02-17 00:00:00,33.4,30.5,30.24,NNW,347,0.0,0.0,89,0.00,,---,0.00,VWS V14.01,2013-02-17 06:00:00,
2013-02-17 00:01:00,33.4,30.5,30.24,NNW,347,0.0,0.0,89,0.00,,---,0.00,VWS V14.01,2013-02-17 06:01:00,
2013-02-17 00:06:00,33.2,30.3,30.24,NNW,347,0.0,0.0,89,0.00,,---,0.00,VWS V14.01,2013-02-17 06:06:00,
2013-02-17 00:12:00,33.2,30.3,30.24,NNW,347,0.0,0.0,89,0.00,,---,0.00,VWS V14.01,2013-02-17 06:12:00,
2013-02-17 00:15:00,33.1,30.2,30.24,NNW,347,0.0,0.0,89,0.00,,---,0.00,VWS V14.01,2013-02-17 06:15:00,
2013-02-17 00:17:00,33.1,30.2,30.24,NNW,347,0.0,0.0,89,0.00,,---,0.00,VWS V14.01,2013-02-17 06:17:00,
2013-02-17 00:22:00,32.9,30.0,30.24,NNW,347,0.0,0.0,89,0.00,,---,0.00,VWS V14.01,2013-02-17 06:22:00,
2013-02-17 00:27:00,32.9,30.0,30.24,NNW,347,0.0,0.0,89,0.00,,---,0.00,VWS V14.01,2013-02-17 06:27:00,
2013-02-17 00:30:00,32.9,30.0,30.24,NNW,347,0.0,0.0,89,0.00,,---,0.00,VWS V14.01,2013-02-17 06:30:00,
2013-02-17 00:32:00,32.8,29.9,30.24,NNW,347,0.0,0.0,89,0.00,,---,0.00,VWS V14.01,2013-02-17 06:32:00,
2013-02-17 00:37:00,32.8,29.9,30.24,NNW,347,0.0,0.0,89,0.00,,---,0.00,VWS V14.01,2013-02-17 06:37:00,
2013-02-17 00:42:00,32.8,29.9,30.24,NNW,347,0.0,0.0,89,0.00,,---,0.00,VWS V14.01,2013-02-17 06:42:00,
2013-02-17 00:45:00,32.8,29.9,30.24,NNW,347,0.0,0.0,89,0.00,,---,0.00,VWS V14.01,2013-02-17 06:45:00,
2013-02-17 00:47:00,32.7,29.8,30.24,NNW,347,0.0,0.0,89,0.00,,---,0.00,VWS V14.01,2013-02-17 06:47:00,
2013-02-17 00:52:00,32.5,29.9,30.24,NNW,347,0.0,0.0,90,0.00,,---,0.00,VWS V14.01,2013-02-17 06:52:00,
2013-02-17 00:57:00,32.5,29.6,30.24,NNW,347,0.0,0.0,89,0.00,,---,0.00,VWS V14.01,2013-02-17 06:57:00,
2013-02-17 01:00:00,32.4,29.8,30.24,NNW,347,0.0,0.0,90,0.00,,---,0.00,VWS V14.01,2013-02-17 07:00:00,
2013-02-17 01:02:00,32.4,29.8,30.24,NNW,347,0.0,0.0,90,0.00,,---,0.00,VWS V14.01,2013-02-17 07:02:00,
2013-02-17 01:07:00,32.1,29.5,30.24,NNW,347,0.0,0.0,90,0.00,,---,0.00,VWS V14.01,2013-02-17 07:07:00,
2013-02-17 01:12:00,32.1,29.5,30.24,NNW,347,0.0,0.0,90,0.00,,---,0.00,VWS V14.01,2013-02-17 07:12:00,
2013-02-17 01:15:00,32.1,29.5,30.24,NNW,347,0.0,0.0,90,0.00,,---,0.00,VWS V14.01,2013-02-17 07:15:00,
2013-02-17 01:17:00,31.9,29.3,30.24,NNW,347,0.0,1.0,90,0.00,,---,0.00,VWS V14.01,2013-02-17 07:17:00,
2013-02-17 01:22:00,31.9,29.3,30.24,NNW,347,0.0,1.0,90,0.00,,---,0.00,VWS V14.01,2013-02-17 07:22:00,
2013-02-17 01:27:00,31.8,29.5,30.24,NNW,347,1.0,1.0,91,0.00,,---,0.00,VWS V14.01,2013-02-17 07:27:00,
2013-02-17 01:30:00,31.8,29.5,30.24,NNW,347,0.0,1.0,91,0.00,,---,0.00,VWS V14.01,2013-02-17 07:30:00,
2013-02-17 01:32:00,31.8,29.5,30.24,NNW,347,0.0,0.0,91,0.00,,---,0.00,VWS V14.01,2013-02-17 07:32:00,
2013-02-17 01:38:00,31.6,29.3,30.24,NNW,347,0.0,0.0,91,0.00,,---,0.00,VWS V14.01,2013-02-17 07:38:00,
2013-02-17 01:43:00,31.5,29.2,30.24,NNW,347,0.0,1.0,91,0.00,,---,0.00,VWS V14.01,2013-02-17 07:43:00,
2013-02-17 01:45:00,31.6,29.3,30.25,NNW,347,0.0,1.0,91,0.00,,---,0.00,VWS V14.01,2013-02-17 07:45:00,
2013-02-17 01:48:00,31.5,29.2,30.25,NNW,347,0.0,0.0,91,0.00,,---,0.00,VWS V14.01,2013-02-17 07:48:00,
2013-02-17 01:53:00,31.5,29.2,30.25,NNW,347,0.0,0.0,91,0.00,,---,0.00,VWS V14.01,2013-02-17 07:53:00,
2013-02-17 01:58:00,31.6,29.3,30.25,NNW,347,0.0,0.0,91,0.00,,---,0.00,VWS V14.01,2013-02-17 07:58:00,
2013-02-17 02:00:00,31.6,29.3,30.24,NNW,347,0.0,0.0,91,0.00,,---,0.00,VWS V14.01,2013-02-17 08:00:00,
2013-02-17 02:03:00,31.6,29.3,30.24,NNW,347,0.0,1.0,91,0.00,,---,0.00,VWS V14.01,2013-02-17 08:03:00,
2013-02-17 02:08:00,31.6,29.3,30.24,East,92,0.0,3.0,91,0.00,,---,0.00,VWS V14.01,2013-02-17 08:08:00,
2013-02-17 02:13:00,31.5,29.2,30.24,East,93,0.0,3.0,91,0.00,,---,0.00,VWS V14.01,2013-02-17 08:13:00,
2013-02-17 02:15:00,31.6,29.3,30.24,East,93,0.0,3.0,91,0.00,,---,0.00,VWS V14.01,2013-02-17 08:15:00,
2013-02-17 02:18:00,31.6,29.3,30.24,ESE,103,2.0,4.0,91,0.00,,---,0.00,VWS V14.01,2013-02-17 08:18:00,
2013-02-17 02:23:00,31.5,29.2,30.24,ESE,116,0.0,4.0,91,0.00,,---,0.00,VWS V14.01,2013-02-17 08:23:00,
2013-02-17 02:28:00,31.5,29.2,30.24,ESE,116,0.0,4.0,91,0.00,,---,0.00,VWS V14.01,2013-02-17 08:28:00,
2013-02-17 02:30:00,31.5,29.5,30.24,ESE,116,0.0,4.0,92,0.00,,---,0.00,VWS V14.01,2013-02-17 08:30:00,
2013-02-17 02:33:00,31.6,29.5,30.24,East,92,0.0,4.0,92,0.00,,---,0.00,VWS V14.01,2013-02-17 08:33:00,
2013-02-17 02:38:00,31.6,29.5,30.24,ESE,116,0.0,5.0,92,0.00,,---,0.00,VWS V14.01,2013-02-17 08:38:00,
2013-02-17 02:43:00,31.9,29.8,30.24,SE,138,0.0,5.0,92,0.00,,---,0.00,VWS V14.01,2013-02-17 08:43:00,
2013-02-17 02:45:00,32.1,30.0,30.24,SE,138,0.0,5.0,92,0.00,,---,0.00,VWS V14.01,2013-02-17 08:45:00,
2013-02-17 02:48:00,32.4,30.1,30.24,SE,132,0.0,3.0,91,0.00,,---,0.00,VWS V14.01,2013-02-17 08:48:00,
2013-02-17 02:53:00,32.4,29.8,30.24,SE,132,0.0,4.0,90,0.00,,---,0.00,VWS V14.01,2013-02-17 08:53:00,
2013-02-17 02:59:00,32.2,29.6,30.24,SE,130,0.0,4.0,90,0.00,,---,0.00,VWS V14.01,2013-02-17 08:59:00,
2013-02-17 03:00:00,32.2,29.6,30.24,SE,130,0.0,4.0,90,0.00,,---,0.00,VWS V14.01,2013-02-17 09:00:00,
2013-02-17 03:04:00,32.2,29.6,30.24,SE,127,0.0,3.0,90,0.00,,---,0.00,VWS V14.01,2013-02-17 09:04:00,
2013-02-17 03:09:00,32.2,29.3,30.24,SE,126,0.0,3.0,89,0.00,,---,0.00,VWS V14.01,2013-02-17 09:09:00,
2013-02-17 03:14:00,32.2,29.3,30.24,ESE,116,1.0,4.0,89,0.00,,---,0.00,VWS V14.01,2013-02-17 09:14:00,
2013-02-17 03:15:00,32.2,29.3,30.24,ESE,116,0.0,4.0,89,0.00,,---,0.00,VWS V14.01,2013-02-17 09:15:00,
2013-02-17 03:19:00,32.4,29.2,30.24,ESE,109,0.0,2.0,88,0.00,,---,0.00,VWS V14.01,2013-02-17 09:19:00,
2013-02-17 03:24:00,32.5,29.1,30.24,ESE,109,0.0,4.0,87,0.00,,---,0.00,VWS V14.01,2013-02-17 09:24:00,
2013-02-17 03:29:00,32.8,29.1,30.23,ESE,116,0.0,4.0,86,0.00,,---,0.00,VWS V14.01,2013-02-17 09:29:00,
2013-02-17 03:30:00,32.8,29.1,30.23,ESE,116,0.0,4.0,86,0.00,,---,0.00,VWS V14.01,2013-02-17 09:30:00,
2013-02-17 03:34:00,32.9,28.9,30.23,SE,130,0.0,6.0,85,0.00,,---,0.00,VWS V14.01,2013-02-17 09:34:00,
2013-02-17 03:39:00,33.1,28.5,30.23,ESE,119,0.0,6.0,83,0.00,,---,0.00,VWS V14.01,2013-02-17 09:39:00,
2013-02-17 03:44:00,33.4,28.5,30.24,ESE,119,0.0,1.0,82,0.00,,---,0.00,VWS V14.01,2013-02-17 09:44:00,
2013-02-17 03:45:00,33.4,28.5,30.24,ESE,119,1.0,6.0,82,0.00,,---,0.00,VWS V14.01,2013-02-17 09:45:00,
2013-02-17 03:49:00,33.5,28.3,30.24,ESE,115,0.0,4.0,81,0.00,,---,0.00,VWS V14.01,2013-02-17 09:49:00,
2013-02-17 03:54:00,33.5,28.0,30.24,SE,127,5.0,5.0,80,0.00,,---,0.00,VWS V14.01,2013-02-17 09:54:00,
2013-02-17 03:59:00,33.7,28.2,30.22,ESE,113,0.0,0.0,80,0.00,,---,0.00,VWS V14.01,2013-02-17 09:59:00,
2013-02-17 04:00:00,33.8,28.3,30.22,ESE,113,0.0,5.0,80,0.00,,---,0.00,VWS V14.01,2013-02-17 10:00:00,
2013-02-17 04:04:00,33.8,27.7,30.22,ESE,105,0.0,7.0,78,0.00,,---,0.00,VWS V14.01,2013-02-17 10:04:00,
2013-02-17 04:09:00,34.1,27.7,30.22,ESE,112,1.0,7.0,77,0.00,,---,0.00,VWS V14.01,2013-02-17 10:09:00,
2013-02-17 04:14:00,34.3,27.2,30.22,SE,140,2.0,2.0,75,0.00,,---,0.00,VWS V14.01,2013-02-17 10:14:00,
2013-02-17 04:15:00,34.3,27.2,30.22,ESE,113,0.0,7.0,75,0.00,,---,0.00,VWS V14.01,2013-02-17 10:15:00,
2013-02-17 04:19:00,34.4,27.0,30.22,ESE,103,0.0,5.0,74,0.00,,---,0.00,VWS V14.01,2013-02-17 10:19:00,
2013-02-17 04:24:00,34.4,27.0,30.22,ESE,116,0.0,5.0,74,0.00,,---,0.00,VWS V14.01,2013-02-17 10:24:00,
2013-02-17 04:29:00,34.3,26.9,30.24,ESE,116,0.0,0.0,74,0.00,,---,0.00,VWS V14.01,2013-02-17 10:29:00,
2013-02-17 04:30:00,34.3,26.9,30.24,ESE,116,0.0,5.0,74,0.00,,---,0.00,VWS V14.01,2013-02-17 10:30:00,
2013-02-17 04:34:00,34.1,26.7,30.24,SE,138,0.0,3.0,74,0.00,,---,0.00,VWS V14.01,2013-02-17 10:34:00,
2013-02-17 04:39:00,34.0,26.9,30.24,SE,138,0.0,3.0,75,0.00,,---,0.00,VWS V14.01,2013-02-17 10:39:00,
2013-02-17 04:44:00,33.8,27.0,30.24,SE,138,0.0,0.0,76,0.00,,---,0.00,VWS V14.01,2013-02-17 10:44:00,
2013-02-17 04:45:00,33.8,27.0,30.24,SE,138,0.0,3.0,76,0.00,,---,0.00,VWS V14.01,2013-02-17 10:45:00,
2013-02-17 04:49:00,33.7,27.3,30.24,SE,138,0.0,0.0,77,0.00,,---,0.00,VWS V14.01,2013-02-17 10:49:00,
2013-02-17 04:54:00,33.4,27.0,30.24,SE,138,0.0,0.0,77,0.00,,---,0.00,VWS V14.01,2013-02-17 10:54:00,
2013-02-17 04:59:00,33.1,26.7,30.24,SE,138,0.0,1.0,77,0.00,,---,0.00,VWS V14.01,2013-02-17 10:59:00,
2013-02-17 05:00:00,33.1,26.7,30.24,SE,138,1.0,2.0,77,0.00,,---,0.00,VWS V14.01,2013-02-17 11:00:00,
2013-02-17 05:04:00,33.1,27.3,30.24,SE,138,0.0,3.0,79,0.00,,---,0.00,VWS V14.01,2013-02-17 11:04:00,
2013-02-17 05:09:00,32.9,27.1,30.24,SE,138,0.0,3.0,79,0.00,,---,0.00,VWS V14.01,2013-02-17 11:09:00,
2013-02-17 05:14:00,32.7,27.2,30.24,SE,138,0.0,0.0,80,0.00,,---,0.00,VWS V14.01,2013-02-17 11:14:00,
2013-02-17 05:15:00,32.7,27.2,30.24,SE,138,0.0,3.0,80,0.00,,---,0.00,VWS V14.01,2013-02-17 11:15:00,
2013-02-17 05:19:00,32.5,27.0,30.24,SE,138,0.0,3.0,80,0.00,,---,0.00,VWS V14.01,2013-02-17 11:19:00,
2013-02-17 05:24:00,32.4,27.2,30.24,SE,138,0.0,3.0,81,0.00,,---,0.00,VWS V14.01,2013-02-17 11:24:00,
2013-02-17 05:30:00,32.4,27.2,30.24,SE,138,0.0,0.0,81,0.00,,---,0.00,VWS V14.01,2013-02-17 11:30:00,
2013-02-17 05:35:00,32.2,27.0,30.24,SE,138,0.0,0.0,81,0.00,,---,0.00,VWS V14.01,2013-02-17 11:35:00,
2013-02-17 05:40:00,32.1,26.9,30.24,SE,138,0.0,0.0,81,0.00,,---,0.00,VWS V14.01,2013-02-17 11:40:00,
2013-02-17 05:45:00,31.9,27.0,30.25,SE,138,0.0,1.0,82,0.00,,---,0.00,VWS V14.01,2013-02-17 11:45:00,
2013-02-17 05:50:00,31.8,26.9,30.25,SE,138,0.0,1.0,82,0.00,,---,0.00,VWS V14.01,2013-02-17 11:50:00,
2013-02-17 05:55:00,31.8,27.2,30.25,SE,138,0.0,1.0,83,0.00,,---,0.00,VWS V14.01,2013-02-17 11:55:00,
2013-02-17 06:00:00,31.6,27.3,30.25,SE,138,0.0,0.0,84,0.00,,---,0.00,VWS V14.01,2013-02-17 12:00:00,
2013-02-17 06:05:00,31.6,27.3,30.25,SE,138,0.0,1.0,84,0.00,,---,0.00,VWS V14.01,2013-02-17 12:05:00,
2013-02-17 06:10:00,31.5,27.2,30.25,East,96,0.0,3.0,84,0.00,,---,0.00,VWS V14.01,2013-02-17 12:10:00,
2013-02-17 06:15:00,31.5,27.5,30.25,ESE,112,3.0,3.0,85,0.00,,---,0.00,VWS V14.01,2013-02-17 12:15:00,
2013-02-17 06:20:00,31.3,27.3,30.25,ESE,113,0.0,3.0,85,0.00,,---,0.00,VWS V14.01,2013-02-17 12:20:00,
2013-02-17 06:25:00,31.3,27.3,30.25,SE,137,0.0,4.0,85,0.00,,---,0.00,VWS V14.01,2013-02-17 12:25:00,
2013-02-17 06:30:00,31.2,27.5,30.25,SE,132,0.0,0.0,86,0.00,,---,0.00,VWS V14.01,2013-02-17 12:30:00,
2013-02-17 06:35:00,31.3,27.6,30.25,SE,132,1.0,1.0,86,0.00,,---,0.00,VWS V14.01,2013-02-17 12:35:00,
2013-02-17 06:40:00,31.5,27.5,30.25,SE,132,0.0,1.0,85,0.00,,---,0.00,VWS V14.01,2013-02-17 12:40:00,
2013-02-17 06:45:00,31.6,27.3,30.26,SE,132,0.0,0.0,84,0.00,,---,0.00,VWS V14.01,2013-02-17 12:45:00,
2013-02-17 06:50:00,31.6,27.6,30.26,SE,132,0.0,0.0,85,0.00,,---,0.00,VWS V14.01,2013-02-17 12:50:00,
2013-02-17 06:55:00,31.5,27.5,30.26,SE,132,0.0,0.0,85,0.00,,---,0.00,VWS V14.01,2013-02-17 12:55:00,
2013-02-17 07:00:00,31.3,27.3,30.26,SE,132,0.0,0.0,85,0.00,,---,0.00,VWS V14.01,2013-02-17 13:00:00,
2013-02-17 07:05:00,31.3,27.3,30.26,SE,132,0.0,0.0,85,0.00,,---,0.00,VWS V14.01,2013-02-17 13:05:00,
2013-02-17 07:10:00,31.3,27.6,30.26,SE,132,0.0,0.0,86,0.00,,---,0.00,VWS V14.01,2013-02-17 13:10:00,
2013-02-17 07:15:00,31.3,27.6,30.27,SE,132,0.0,0.0,86,0.00,,---,0.00,VWS V14.01,2013-02-17 13:15:00,
2013-02-17 07:20:00,31.3,27.6,30.27,SE,132,0.0,0.0,86,0.00,,---,0.00,VWS V14.01,2013-02-17 13:20:00,
2013-02-17 07:26:00,31.5,27.8,30.27,SE,132,0.0,0.0,86,0.00,,---,0.00,VWS V14.01,2013-02-17 13:26:00,
2013-02-17 07:30:00,31.6,27.9,30.27,SE,132,0.0,0.0,86,0.00,,---,0.00,VWS V14.01,2013-02-17 13:30:00,
2013-02-17 07:31:00,31.8,28.1,30.27,SE,132,0.0,1.0,86,0.00,,---,0.00,VWS V14.01,2013-02-17 13:31:00,
2013-02-17 07:36:00,32.1,28.4,30.27,SE,132,0.0,1.0,86,0.00,,---,0.00,VWS V14.01,2013-02-17 13:36:00,
2013-02-17 07:41:00,32.7,29.3,30.27,SE,132,0.0,1.0,87,0.00,,---,0.00,VWS V14.01,2013-02-17 13:41:00,
2013-02-17 07:45:00,33.4,29.7,30.27,SE,130,0.0,3.0,86,0.00,,---,0.00,VWS V14.01,2013-02-17 13:45:00,
2013-02-17 07:46:00,33.7,29.7,30.27,SE,130,0.0,0.0,85,0.00,,---,0.00,VWS V14.01,2013-02-17 13:46:00,
2013-02-17 07:51:00,34.7,29.8,30.27,SE,136,1.0,4.0,82,0.00,,---,0.00,VWS V14.01,2013-02-17 13:51:00,
2013-02-17 07:56:00,35.8,29.6,30.27,ESE,103,0.0,4.0,78,0.00,,---,0.00,VWS V14.01,2013-02-17 13:56:00,
2013-02-17 08:00:00,36.3,29.8,30.28,SSE,152,5.0,5.0,77,0.00,,---,0.00,VWS V14.01,2013-02-17 14:00:00,
2013-02-17 08:01:00,36.6,29.1,30.28,ESE,109,0.0,5.0,74,0.00,,---,0.00,VWS V14.01,2013-02-17 14:01:00,
2013-02-17 08:06:00,37.5,29.3,30.28,SE,143,0.0,5.0,72,0.00,,---,0.00,VWS V14.01,2013-02-17 14:06:00,
2013-02-17 08:11:00,38.2,29.6,30.28,SSE,153,0.0,5.0,71,0.00,,---,0.00,VWS V14.01,2013-02-17 14:11:00,
2013-02-17 08:15:00,38.8,29.2,30.28,SE,146,0.0,7.0,68,0.00,,---,0.00,VWS V14.01,2013-02-17 14:15:00,
2013-02-17 08:25:00,40.2,29.4,30.28,ESE,109,4.0,4.0,65,0.00,,---,0.00,VWS V14.01,2013-02-17 14:25:00,
2013-02-17 08:30:00,40.6,29.8,30.28,ESE,121,2.0,4.0,65,0.00,,---,0.00,VWS V14.01,2013-02-17 14:30:00,
2013-02-17 08:31:00,40.9,30.4,30.28,SE,124,0.0,3.0,66,0.00,,---,0.00,VWS V14.01,2013-02-17 14:31:00,
2013-02-17 08:36:00,41.5,30.2,30.28,SE,146,0.0,11.0,64,0.00,,---,0.00,VWS V14.01,2013-02-17 14:36:00,
2013-02-17 08:41:00,42.5,31.2,30.28,SE,140,3.0,11.0,64,0.00,,---,0.00,VWS V14.01,2013-02-17 14:41:00,
2013-02-17 08:45:00,42.8,31.5,30.28,SE,136,0.0,11.0,64,0.00,,---,0.00,VWS V14.01,2013-02-17 14:45:00,
2013-02-17 08:46:00,42.9,31.6,30.28,South,176,0.0,4.0,64,0.00,,---,0.00,VWS V14.01,2013-02-17 14:46:00,
2013-02-17 08:51:00,43.6,32.6,30.28,South,175,2.0,4.0,65,0.00,,---,0.00,VWS V14.01,2013-02-17 14:51:00,
2013-02-17 08:56:00,44.5,33.5,30.28,SSE,153,0.0,4.0,65,0.00,,---,0.00,VWS V14.01,2013-02-17 14:56:00,
2013-02-17 09:00:00,45.1,34.0,30.29,SSE,163,0.0,4.0,65,0.00,,---,0.00,VWS V14.01,2013-02-17 15:00:00,
2013-02-17 09:01:00,45.4,33.6,30.29,SSE,165,0.0,3.0,63,0.00,,---,0.00,VWS V14.01,2013-02-17 15:01:00,
2013-02-17 09:06:00,45.7,33.8,30.29,SSE,157,0.0,5.0,63,0.00,,---,0.00,VWS V14.01,2013-02-17 15:06:00,
2013-02-17 09:11:00,46.0,34.1,30.29,South,181,5.0,7.0,63,0.00,,---,0.00,VWS V14.01,2013-02-17 15:11:00,
2013-02-17 09:15:00,46.1,34.2,30.29,SSE,155,0.0,7.0,63,0.00,,---,0.00,VWS V14.01,2013-02-17 15:15:00,
2013-02-17 09:16:00,46.4,34.5,30.29,SSE,165,0.0,3.0,63,0.00,,---,0.00,VWS V14.01,2013-02-17 15:16:00,
2013-02-17 09:21:00,46.7,34.0,30.29,SE,144,3.0,6.0,61,0.00,,---,0.00,VWS V14.01,2013-02-17 15:21:00,
2013-02-17 09:26:00,47.3,34.5,30.29,SE,142,0.0,7.0,61,0.00,,---,0.00,VWS V14.01,2013-02-17 15:26:00,
2013-02-17 09:30:00,47.3,34.1,30.29,SE,138,5.0,7.0,60,0.00,,---,0.00,VWS V14.01,2013-02-17 15:30:00,
2013-02-17 09:31:00,47.4,35.0,30.29,SSE,167,0.0,5.0,62,0.00,,---,0.00,VWS V14.01,2013-02-17 15:31:00,
2013-02-17 09:36:00,47.7,34.9,30.29,SE,128,10.0,10.0,61,0.00,,---,0.00,VWS V14.01,2013-02-17 15:36:00,
2013-02-17 09:41:00,48.0,34.4,30.29,South,178,3.0,10.0,59,0.00,,---,0.00,VWS V14.01,2013-02-17 15:41:00,
2013-02-17 09:45:00,53.2,33.0,30.28,South,169,2.0,10.0,46,0.00,,---,0.00,VWS V14.01,2013-02-17 15:45:00,
2013-02-17 09:46:00,48.8,35.5,30.28,South,184,0.0,4.0,60,0.00,,---,0.00,VWS V14.01,2013-02-17 15:46:00,
2013-02-17 09:52:00,49.2,34.2,30.28,SSE,157,4.0,6.0,56,0.00,,---,0.00,VWS V14.01,2013-02-17 15:52:00,
2013-02-17 09:57:00,49.5,34.9,30.28,South,176,0.0,9.0,57,0.00,,---,0.00,VWS V14.01,2013-02-17 15:57:00,
2013-02-17 10:00:00,49.8,34.8,30.28,SSE,163,4.0,9.0,56,0.00,,---,0.00,VWS V14.01,2013-02-17 16:00:00,
2013-02-17 10:02:00,49.9,34.8,30.28,South,184,5.0,6.0,56,0.00,,---,0.00,VWS V14.01,2013-02-17 16:02:00,
2013-02-17 10:07:00,50.5,34.0,30.28,South,173,0.0,6.0,53,0.00,,---,0.00,VWS V14.01,2013-02-17 16:07:00,
2013-02-17 10:12:00,51.1,34.6,30.28,SSE,157,0.0,6.0,53,0.00,,---,0.00,VWS V14.01,2013-02-17 16:12:00,
2013-02-17 10:15:00,51.3,34.8,30.28,South,173,2.0,7.0,53,0.00,,---,0.00,VWS V14.01,2013-02-17 16:15:00,
2013-02-17 10:17:00,51.3,33.8,30.28,SSW,204,0.0,3.0,51,0.00,,---,0.00,VWS V14.01,2013-02-17 16:17:00,
2013-02-17 10:22:00,51.6,34.1,30.28,SSE,148,0.0,6.0,51,0.00,,---,0.00,VWS V14.01,2013-02-17 16:22:00,
2013-02-17 10:27:00,51.9,33.4,30.28,South,177,0.0,6.0,49,0.00,,---,0.00,VWS V14.01,2013-02-17 16:27:00,
2013-02-17 10:30:00,52.2,35.1,30.28,South,171,0.0,6.0,52,0.00,,---,0.00,VWS V14.01,2013-02-17 16:30:00,
2013-02-17 10:32:00,52.9,35.8,30.28,SSW,204,6.0,8.0,52,0.00,,---,0.00,VWS V14.01,2013-02-17 16:32:00,
2013-02-17 10:37:00,52.9,33.8,30.28,West,269,3.0,10.0,48,0.00,,---,0.00,VWS V14.01,2013-02-17 16:37:00,
2013-02-17 10:42:00,53.2,33.5,30.28,SW,223,0.0,10.0,47,0.00,,---,0.00,VWS V14.01,2013-02-17 16:42:00,
2013-02-17 10:45:00,53.2,33.0,30.28,South,169,2.0,10.0,46,0.00,,---,0.00,VWS V14.01,2013-02-17 16:45:00,
2013-02-17 10:47:00,53.8,31.9,30.28,SSW,211,4.0,7.0,43,0.00,,---,0.00,VWS V14.01,2013-02-17 16:47:00,
2013-02-17 10:52:00,53.8,32.4,30.28,South,183,5.0,12.0,44,0.00,,---,0.00,VWS V14.01,2013-02-17 16:52:00,
2013-02-17 10:57:00,53.6,32.2,30.28,ESE,123,6.0,12.0,44,0.00,,---,0.00,VWS V14.01,2013-02-17 16:57:00,
2013-02-17 11:00:00,53.9,33.6,30.27,South,181,0.0,12.0,46,0.00,,---,0.00,VWS V14.01,2013-02-17 17:00:00,
2013-02-17 11:02:00,54.7,32.7,30.27,South,176,0.0,9.0,43,0.00,,---,0.00,VWS V14.01,2013-02-17 17:02:00,
2013-02-17 11:07:00,54.8,32.8,30.27,SSE,168,0.0,9.0,43,0.00,,---,0.00,VWS V14.01,2013-02-17 17:07:00,
2013-02-17 11:12:00,55.1,31.2,30.27,SSW,209,6.0,10.0,40,0.00,,---,0.00,VWS V14.01,2013-02-17 17:12:00,
2013-02-17 11:15:00,55.1,31.8,30.27,SW,217,3.0,10.0,41,0.00,,---,0.00,VWS V14.01,2013-02-17 17:15:00,
2013-02-17 11:17:00,55.3,33.8,30.27,South,177,7.0,11.0,44,0.00,,---,0.00,VWS V14.01,2013-02-17 17:17:00,
2013-02-17 11:23:00,55.7,31.8,30.27,SSW,209,10.0,11.0,40,0.00,,---,0.00,VWS V14.01,2013-02-17 17:23:00,
2013-02-17 11:28:00,55.4,32.1,30.27,SSE,167,4.0,12.0,41,0.00,,---,0.00,VWS V14.01,2013-02-17 17:28:00,
2013-02-17 11:30:00,55.6,32.3,30.26,South,179,0.0,12.0,41,0.00,,---,0.00,VWS V14.01,2013-02-17 17:30:00,
2013-02-17 11:33:00,55.7,32.4,30.26,SSE,161,7.0,9.0,41,0.00,,---,0.00,VWS V14.01,2013-02-17 17:33:00,
2013-02-17 11:38:00,56.3,32.9,30.26,South,182,0.0,10.0,41,0.00,,---,0.00,VWS V14.01,2013-02-17 17:38:00,
2013-02-17 11:43:00,56.9,32.8,30.26,SSE,168,0.0,10.0,40,0.00,,---,0.00,VWS V14.01,2013-02-17 17:43:00,
2013-02-17 11:45:00,57.0,34.2,30.25,South,182,0.0,10.0,42,0.00,,---,0.00,VWS V14.01,2013-02-17 17:45:00,
2013-02-17 11:48:00,57.0,31.7,30.25,South,190,0.0,10.0,38,0.00,,---,0.00,VWS V14.01,2013-02-17 17:48:00,
2013-02-17 11:53:00,57.2,33.1,30.25,South,176,7.0,10.0,40,0.00,,---,0.00,VWS V14.01,2013-02-17 17:53:00,
2013-02-17 11:58:00,57.6,33.5,30.25,SSW,199,0.0,10.0,40,0.00,,---,0.00,VWS V14.01,2013-02-17 17:58:00,
2013-02-17 12:00:00,60.4,34.7,30.20,WSW,246,3.0,11.0,38,0.00,,---,0.00,VWS V14.01,2013-02-17 18:00:00,
2013-02-17 12:03:00,58.0,32.6,30.24,SSE,153,0.0,10.0,38,0.00,,---,0.00,VWS V14.01,2013-02-17 18:03:00,
2013-02-17 12:08:00,58.7,33.2,30.24,South,184,4.0,11.0,38,0.00,,---,0.00,VWS V14.01,2013-02-17 18:08:00,
2013-02-17 12:13:00,58.9,33.4,30.24,SSW,198,3.0,11.0,38,0.00,,---,0.00,VWS V14.01,2013-02-17 18:13:00,
2013-02-17 12:15:00,58.9,34.6,30.23,South,175,0.0,11.0,40,0.00,,---,0.00,VWS V14.01,2013-02-17 18:15:00,
2013-02-17 12:18:00,59.0,33.5,30.23,South,189,0.0,11.0,38,0.00,,---,0.00,VWS V14.01,2013-02-17 18:18:00,
2013-02-17 12:23:00,58.9,32.7,30.23,SSE,161,0.0,13.0,37,0.00,,---,0.00,VWS V14.01,2013-02-17 18:23:00,
2013-02-17 12:28:00,59.3,35.0,30.23,South,171,6.0,13.0,40,0.00,,---,0.00,VWS V14.01,2013-02-17 18:28:00,
2013-02-17 12:30:00,59.3,33.7,30.22,South,184,6.0,13.0,38,0.00,,---,0.00,VWS V14.01,2013-02-17 18:30:00,
2013-02-17 12:33:00,59.2,33.6,30.22,SSW,207,0.0,7.0,38,0.00,,---,0.00,VWS V14.01,2013-02-17 18:33:00,
2013-02-17 12:38:00,59.6,32.6,30.22,South,175,4.0,11.0,36,0.00,,---,0.00,VWS V14.01,2013-02-17 18:38:00,
2013-02-17 12:43:00,59.9,34.9,30.22,SW,221,5.0,11.0,39,0.00,,---,0.00,VWS V14.01,2013-02-17 18:43:00,
2013-02-17 12:45:00,60.1,35.7,30.22,South,182,9.0,13.0,40,0.00,,---,0.00,VWS V14.01,2013-02-17 18:45:00,
2013-02-17 12:48:00,59.8,34.8,30.22,SSW,207,8.0,11.0,39,0.00,,---,0.00,VWS V14.01,2013-02-17 18:48:00,
2013-02-17 12:53:00,60.2,35.8,30.22,WSW,258,4.0,11.0,40,0.00,,---,0.00,VWS V14.01,2013-02-17 18:53:00,
2013-02-17 12:58:00,60.4,35.3,30.20,WSW,250,5.0,11.0,39,0.00,,---,0.00,VWS V14.01,2013-02-17 18:58:00,
2013-02-17 13:00:00,60.4,34.7,30.20,WSW,246,3.0,11.0,38,0.00,,---,0.00,VWS V14.01,2013-02-17 19:00:00,
2013-02-17 13:03:00,61.0,35.2,30.20,SSW,194,3.0,12.0,38,0.00,,---,0.00,VWS V14.01,2013-02-17 19:03:00,
2013-02-17 13:08:00,61.2,36.1,30.20,South,187,5.0,12.0,39,0.00,,---,0.00,VWS V14.01,2013-02-17 19:08:00,
2013-02-17 13:13:00,61.6,36.4,30.19,SSW,201,9.0,12.0,39,0.00,,---,0.00,VWS V14.01,2013-02-17 19:13:00,
2013-02-17 13:15:00,61.5,36.3,30.19,SSW,207,3.0,12.0,39,0.00,,---,0.00,VWS V14.01,2013-02-17 19:15:00,
2013-02-17 13:18:00,61.3,34.1,30.19,SW,221,6.0,9.0,36,0.00,,---,0.00,VWS V14.01,2013-02-17 19:18:00,
2013-02-17 13:23:00,61.6,35.1,30.19,SW,215,5.0,9.0,37,0.00,,---,0.00,VWS V14.01,2013-02-17 19:23:00,
2013-02-17 13:28:00,61.2,34.1,30.19,SSW,194,9.0,15.0,36,0.00,,---,0.00,VWS V14.01,2013-02-17 19:28:00,
2013-02-17 13:30:00,61.2,35.4,30.19,SSW,205,7.0,15.0,38,0.00,,---,0.00,VWS V14.01,2013-02-17 19:30:00,
2013-02-17 13:34:00,60.9,34.5,30.19,SSW,199,3.0,12.0,37,0.00,,---,0.00,VWS V14.01,2013-02-17 19:34:00,
2013-02-17 13:39:00,60.7,35.6,30.19,South,191,6.0,12.0,39,0.00,,---,0.00,VWS V14.01,2013-02-17 19:39:00,
2013-02-17 13:44:00,61.5,36.3,30.18,SSW,200,0.0,12.0,39,0.00,,---,0.00,VWS V14.01,2013-02-17 19:44:00,
2013-02-17 13:45:00,61.5,36.3,30.18,SSW,192,7.0,12.0,39,0.00,,---,0.00,VWS V14.01,2013-02-17 19:45:00,
2013-02-17 13:49:00,61.3,35.5,30.18,South,172,1.0,7.0,38,0.00,,---,0.00,VWS V14.01,2013-02-17 19:49:00,
2013-02-17 13:54:00,61.6,35.1,30.18,SW,230,4.0,9.0,37,0.00,,---,0.00,VWS V14.01,2013-02-17 19:54:00,
2013-02-17 13:59:00,62.3,35.7,30.17,SSW,211,4.0,12.0,37,0.00,,---,0.00,VWS V14.01,2013-02-17 19:59:00,
2013-02-17 14:00:00,62.3,35.7,30.17,SW,217,6.0,12.0,37,0.00,,---,0.00,VWS V14.01,2013-02-17 20:00:00,
2013-02-17 14:04:00,62.3,36.4,30.17,West,265,6.0,10.0,38,0.00,,---,0.00,VWS V14.01,2013-02-17 20:04:00,
2013-02-17 14:09:00,62.3,36.4,30.17,SW,226,5.0,14.0,38,0.00,,---,0.00,VWS V14.01,2013-02-17 20:09:00,
2013-02-17 14:14:00,62.7,37.4,30.17,West,262,5.0,14.0,39,0.00,,---,0.00,VWS V14.01,2013-02-17 20:14:00,
2013-02-17 14:15:00,62.7,36.1,30.17,SW,236,4.0,14.0,37,0.00,,---,0.00,VWS V14.01,2013-02-17 20:15:00,
2013-02-17 14:19:00,62.6,34.6,30.17,SSW,207,0.0,6.0,35,0.00,,---,0.00,VWS V14.01,2013-02-17 20:19:00,
2013-02-17 14:24:00,62.9,36.2,30.17,SW,232,10.0,10.0,37,0.00,,---,0.00,VWS V14.01,2013-02-17 20:24:00,
2013-02-17 14:29:00,62.6,36.0,30.17,WSW,240,10.0,12.0,37,0.00,,---,0.00,VWS V14.01,2013-02-17 20:29:00,
2013-02-17 14:30:00,62.6,36.0,30.17,WSW,240,10.0,12.0,37,0.00,,---,0.00,VWS V14.01,2013-02-17 20:30:00,
2013-02-17 14:34:00,62.1,35.5,30.17,SSW,192,3.0,10.0,37,0.00,,---,0.00,VWS V14.01,2013-02-17 20:34:00,
2013-02-17 14:39:00,62.3,36.4,30.17,SW,226,4.0,12.0,38,0.00,,---,0.00,VWS V14.01,2013-02-17 20:39:00,
2013-02-17 14:44:00,62.6,35.3,30.16,SW,227,3.0,4.0,36,0.00,,---,0.00,VWS V14.01,2013-02-17 20:44:00,
2013-02-17 14:45:00,62.7,35.4,30.16,SW,223,3.0,12.0,36,0.00,,---,0.00,VWS V14.01,2013-02-17 20:45:00,
2013-02-17 14:49:00,62.4,35.1,30.16,SSW,202,13.0,13.0,36,0.00,,---,0.00,VWS V14.01,2013-02-17 20:49:00,
2013-02-17 14:54:00,62.4,36.5,30.16,WSW,258,2.0,13.0,38,0.00,,---,0.00,VWS V14.01,2013-02-17 20:54:00,
2013-02-17 14:59:00,62.9,36.9,30.15,SSW,202,2.0,3.0,38,0.00,,---,0.00,VWS V14.01,2013-02-17 20:59:00,
2013-02-17 15:00:00,62.7,36.8,30.15,SSW,205,3.0,13.0,38,0.00,,---,0.00,VWS V14.01,2013-02-17 21:00:00,
2013-02-17 15:04:00,63.1,37.8,30.15,SW,227,6.0,10.0,39,0.00,,---,0.00,VWS V14.01,2013-02-17 21:04:00,
2013-02-17 15:09:00,63.1,36.4,30.15,SW,215,4.0,11.0,37,0.00,,---,0.00,VWS V14.01,2013-02-17 21:09:00,
2013-02-17 15:14:00,63.2,37.9,30.15,SW,215,5.0,6.0,39,0.00,,---,0.00,VWS V14.01,2013-02-17 21:14:00,
2013-02-17 15:15:00,63.2,37.9,30.15,SW,220,4.0,11.0,39,0.00,,---,0.00,VWS V14.01,2013-02-17 21:15:00,
2013-02-17 15:20:00,63.1,37.8,30.15,South,175,0.0,7.0,39,0.00,,---,0.00,VWS V14.01,2013-02-17 21:20:00,
2013-02-17 15:25:00,63.2,38.5,30.15,SSW,203,9.0,9.0,40,0.00,,---,0.00,VWS V14.01,2013-02-17 21:25:00,
2013-02-17 15:30:00,63.1,37.1,30.14,SSW,196,3.0,8.0,38,0.00,,---,0.00,VWS V14.01,2013-02-17 21:30:00,
2013-02-17 15:35:00,62.9,36.9,30.14,South,182,2.0,8.0,38,0.00,,---,0.00,VWS V14.01,2013-02-17 21:35:00,
2013-02-17 15:40:00,63.4,35.3,30.14,SSW,196,0.0,10.0,35,0.00,,---,0.00,VWS V14.01,2013-02-17 21:40:00,
2013-02-17 15:45:00,63.5,37.5,30.14,South,189,6.0,11.0,38,0.00,,---,0.00,VWS V14.01,2013-02-17 21:45:00,
2013-02-17 15:50:00,63.2,37.2,30.14,SSW,201,11.0,11.0,38,0.00,,---,0.00,VWS V14.01,2013-02-17 21:50:00,
2013-02-17 15:55:00,63.5,37.5,30.14,WSW,247,0.0,11.0,38,0.00,,---,0.00,VWS V14.01,2013-02-17 21:55:00,
2013-02-17 16:00:00,63.9,37.8,30.14,SW,224,5.0,9.0,38,0.00,,---,0.00,VWS V14.01,2013-02-17 22:00:00,
2013-02-17 16:05:00,63.5,37.5,30.14,SW,215,4.0,14.0,38,0.00,,---,0.00,VWS V14.01,2013-02-17 22:05:00,
2013-02-17 16:10:00,62.9,37.6,30.14,South,175,11.0,14.0,39,0.00,,---,0.00,VWS V14.01,2013-02-17 22:10:00,
2013-02-17 16:15:00,62.7,37.4,30.14,SW,219,6.0,7.0,39,0.00,,---,0.00,VWS V14.01,2013-02-17 22:15:00,
2013-02-17 16:20:00,62.7,36.8,30.14,SSW,201,9.0,13.0,38,0.00,,---,0.00,VWS V14.01,2013-02-17 22:20:00,
2013-02-17 16:25:00,62.9,38.2,30.14,WSW,252,6.0,13.0,40,0.00,,---,0.00,VWS V14.01,2013-02-17 22:25:00,
2013-02-17 16:30:00,62.7,36.8,30.14,SW,227,4.0,11.0,38,0.00,,---,0.00,VWS V14.01,2013-02-17 22:30:00,
2013-02-17 16:35:00,62.6,36.7,30.14,SSW,198,4.0,12.0,38,0.00,,---,0.00,VWS V14.01,2013-02-17 22:35:00,
2013-02-17 16:40:00,62.4,37.1,30.14,SSW,207,6.0,12.0,39,0.00,,---,0.00,VWS V14.01,2013-02-17 22:40:00,
2013-02-17 16:45:00,62.3,37.0,30.13,SSW,210,5.0,6.0,39,0.00,,---,0.00,VWS V14.01,2013-02-17 22:45:00,
2013-02-17 16:50:00,62.1,37.5,30.13,SW,222,5.0,11.0,40,0.00,,---,0.00,VWS V14.01,2013-02-17 22:50:00,
2013-02-17 16:56:00,62.0,36.8,30.13,SSW,213,3.0,11.0,39,0.00,,---,0.00,VWS V14.01,2013-02-17 22:56:00,
2013-02-17 17:00:00,58.3,39.2,30.13,South,184,4.0,11.0,49,0.00,,---,0.00,VWS V14.01,2013-02-17 23:00:00,
2013-02-17 17:01:00,61.8,37.2,30.14,South,187,9.0,11.0,40,0.00,,---,0.00,VWS V14.01,2013-02-17 23:01:00,
2013-02-17 17:06:00,61.6,37.7,30.14,SSW,196,5.0,11.0,41,0.00,,---,0.00,VWS V14.01,2013-02-17 23:06:00,
2013-02-17 17:11:00,61.5,38.2,30.14,SSW,202,4.0,11.0,42,0.00,,---,0.00,VWS V14.01,2013-02-17 23:11:00,
2013-02-17 17:15:00,61.2,38.0,30.14,SSW,201,7.0,11.0,42,0.00,,---,0.00,VWS V14.01,2013-02-17 23:15:00,
2013-02-17 17:16:00,61.2,38.5,30.14,SSW,205,9.0,11.0,43,0.00,,---,0.00,VWS V14.01,2013-02-17 23:16:00,
2013-02-17 17:21:00,60.9,38.3,30.14,SSW,200,5.0,11.0,43,0.00,,---,0.00,VWS V14.01,2013-02-17 23:21:00,
2013-02-17 17:26:00,60.5,38.5,30.14,SSW,204,6.0,11.0,44,0.00,,---,0.00,VWS V14.01,2013-02-17 23:26:00,
2013-02-17 17:30:00,60.4,38.4,30.14,SSW,197,8.0,11.0,44,0.00,,---,0.00,VWS V14.01,2013-02-17 23:30:00,
2013-02-17 17:31:00,60.4,38.4,30.14,SSW,194,7.0,12.0,44,0.00,,---,0.00,VWS V14.01,2013-02-17 23:31:00,
2013-02-17 17:36:00,60.1,39.3,30.14,SSW,194,3.0,12.0,46,0.00,,---,0.00,VWS V14.01,2013-02-17 23:36:00,
2013-02-17 17:41:00,59.5,39.3,30.14,SSW,205,6.0,12.0,47,0.00,,---,0.00,VWS V14.01,2013-02-17 23:41:00,
2013-02-17 17:45:00,59.2,39.0,30.14,SSW,192,4.0,12.0,47,0.00,,---,0.00,VWS V14.01,2013-02-17 23:45:00,
2013-02-17 17:46:00,59.0,38.8,30.14,South,183,4.0,7.0,47,0.00,,---,0.00,VWS V14.01,2013-02-17 23:46:00,
2013-02-17 17:51:00,58.7,39.1,30.14,South,183,3.0,11.0,48,0.00,,---,0.00,VWS V14.01,2013-02-17 23:51:00,
2013-02-17 17:57:00,58.4,39.3,30.14,South,186,5.0,11.0,49,0.00,,---,0.00,VWS V14.01,2013-02-17 23:57:00,
2013-02-17 18:00:00,58.3,39.2,30.13,South,184,4.0,11.0,49,0.00,,---,0.00,VWS V14.01,2013-02-18 00:00:00,
2013-02-17 18:02:00,58.0,39.5,30.13,South,186,4.0,6.0,50,0.00,,---,0.00,VWS V14.01,2013-02-18 00:02:00,
2013-02-17 18:07:00,57.6,39.1,30.13,South,178,4.0,6.0,50,0.00,,---,0.00,VWS V14.01,2013-02-18 00:07:00,
2013-02-17 18:12:00,57.2,39.2,30.13,South,174,4.0,6.0,51,0.00,,---,0.00,VWS V14.01,2013-02-18 00:12:00,
2013-02-17 18:15:00,57.0,39.1,30.13,South,179,3.0,6.0,51,0.00,,---,0.00,VWS V14.01,2013-02-18 00:15:00,
2013-02-17 18:17:00,56.9,39.0,30.13,South,190,5.0,6.0,51,0.00,,---,0.00,VWS V14.01,2013-02-18 00:17:00,
2013-02-17 18:22:00,56.7,39.3,30.13,South,182,6.0,6.0,52,0.00,,---,0.00,VWS V14.01,2013-02-18 00:22:00,
2013-02-17 18:27:00,56.5,39.1,30.13,South,184,5.0,7.0,52,0.00,,---,0.00,VWS V14.01,2013-02-18 00:27:00,
2013-02-17 18:30:00,56.5,39.1,30.14,South,189,6.0,7.0,52,0.00,,---,0.00,VWS V14.01,2013-02-18 00:30:00,
2013-02-17 18:32:00,56.5,39.6,30.14,South,180,4.0,7.0,53,0.00,,---,0.00,VWS V14.01,2013-02-18 00:32:00,
2013-02-17 18:37:00,56.3,39.4,30.14,SSW,196,5.0,12.0,53,0.00,,---,0.00,VWS V14.01,2013-02-18 00:37:00,
2013-02-17 18:42:00,56.2,39.3,30.14,South,171,4.0,12.0,53,0.00,,---,0.00,VWS V14.01,2013-02-18 00:42:00,
2013-02-17 18:45:00,56.2,39.3,30.14,South,179,5.0,12.0,53,0.00,,---,0.00,VWS V14.01,2013-02-18 00:45:00,
2013-02-17 18:47:00,55.9,39.0,30.14,South,172,5.0,5.0,53,0.00,,---,0.00,VWS V14.01,2013-02-18 00:47:00,
2013-02-17 18:52:00,55.7,38.8,30.14,South,178,5.0,7.0,53,0.00,,---,0.00,VWS V14.01,2013-02-18 00:52:00,
2013-02-17 18:57:00,55.7,38.8,30.14,South,186,5.0,9.0,53,0.00,,---,0.00,VWS V14.01,2013-02-18 00:57:00,
2013-02-17 19:00:00,55.7,38.8,30.14,SSW,192,4.0,9.0,53,0.00,,---,0.00,VWS V14.01,2013-02-18 01:00:00,
2013-02-17 19:02:00,55.6,39.2,30.14,South,188,3.0,7.0,54,0.00,,---,0.00,VWS V14.01,2013-02-18 01:02:00,
2013-02-17 19:07:00,55.6,38.8,30.14,South,186,5.0,7.0,53,0.00,,---,0.00,VWS V14.01,2013-02-18 01:07:00,
2013-02-17 19:12:00,55.4,39.0,30.14,SSW,198,5.0,7.0,54,0.00,,---,0.00,VWS V14.01,2013-02-18 01:12:00,
2013-02-17 19:15:00,55.4,39.0,30.14,South,191,7.0,7.0,54,0.00,,---,0.00,VWS V14.01,2013-02-18 01:15:00,
2013-02-17 19:17:00,55.3,39.0,30.14,SSW,194,4.0,9.0,54,0.00,,---,0.00,VWS V14.01,2013-02-18 01:17:00,
2013-02-17 19:22:00,55.3,39.0,30.14,SSW,201,7.0,11.0,54,0.00,,---,0.00,VWS V14.01,2013-02-18 01:22:00,
2013-02-17 19:28:00,55.4,39.0,30.14,SSW,198,5.0,11.0,54,0.00,,---,0.00,VWS V14.01,2013-02-18 01:28:00,
2013-02-17 19:30:00,55.4,39.0,30.15,SSW,198,5.0,11.0,54,0.00,,---,0.00,VWS V14.01,2013-02-18 01:30:00,
2013-02-17 19:33:00,55.3,39.0,30.15,SSW,202,5.0,9.0,54,0.00,,---,0.00,VWS V14.01,2013-02-18 01:33:00,
2013-02-17 19:38:00,55.1,38.8,30.15,SSW,199,5.0,9.0,54,0.00,,---,0.00,VWS V14.01,2013-02-18 01:38:00,
2013-02-17 19:43:00,54.8,39.0,30.15,SSW,208,3.0,9.0,55,0.00,,---,0.00,VWS V14.01,2013-02-18 01:43:00,
2013-02-17 19:45:00,54.8,39.0,30.15,SSW,192,4.0,9.0,55,0.00,,---,0.00,VWS V14.01,2013-02-18 01:45:00,
2013-02-17 19:48:00,54.7,38.9,30.15,South,177,5.0,6.0,55,0.00,,---,0.00,VWS V14.01,2013-02-18 01:48:00,
2013-02-17 19:53:00,54.5,39.1,30.15,SSW,198,5.0,9.0,56,0.00,,---,0.00,VWS V14.01,2013-02-18 01:53:00,
2013-02-17 19:58:00,54.4,39.0,30.15,SSW,200,4.0,9.0,56,0.00,,---,0.00,VWS V14.01,2013-02-18 01:58:00,
2013-02-17 20:00:00,54.4,39.0,30.15,SSW,200,4.0,9.0,56,0.00,,---,0.00,VWS V14.01,2013-02-18 02:00:00,
2013-02-17 20:03:00,54.2,38.9,30.15,South,188,4.0,7.0,56,0.00,,---,0.00,VWS V14.01,2013-02-18 02:03:00,
2013-02-17 20:08:00,53.9,39.0,30.15,SSW,193,4.0,7.0,57,0.00,,---,0.00,VWS V14.01,2013-02-18 02:08:00,
2013-02-17 20:13:00,53.5,39.1,30.15,South,183,3.0,7.0,58,0.00,,---,0.00,VWS V14.01,2013-02-18 02:13:00,
2013-02-17 20:15:00,53.5,39.1,30.15,South,187,4.0,7.0,58,0.00,,---,0.00,VWS V14.01,2013-02-18 02:15:00,
2013-02-17 20:18:00,53.2,38.8,30.15,South,177,5.0,6.0,58,0.00,,---,0.00,VWS V14.01,2013-02-18 02:18:00,
2013-02-17 20:23:00,53.2,39.3,30.15,South,188,4.0,8.0,59,0.00,,---,0.00,VWS V14.01,2013-02-18 02:23:00,
2013-02-17 20:28:00,53.1,39.2,30.15,South,180,4.0,8.0,59,0.00,,---,0.00,VWS V14.01,2013-02-18 02:28:00,
2013-02-17 20:30:00,53.2,39.3,30.15,South,186,5.0,8.0,59,0.00,,---,0.00,VWS V14.01,2013-02-18 02:30:00,
2013-02-17 20:33:00,53.1,39.2,30.15,SSW,196,5.0,11.0,59,0.00,,---,0.00,VWS V14.01,2013-02-18 02:33:00,
2013-02-17 20:38:00,52.9,39.4,30.15,South,189,5.0,11.0,60,0.00,,---,0.00,VWS V14.01,2013-02-18 02:38:00,
2013-02-17 20:44:00,52.8,39.3,30.16,South,188,3.0,11.0,60,0.00,,---,0.00,VWS V14.01,2013-02-18 02:44:00,
2013-02-17 20:45:00,52.8,39.3,30.16,South,188,5.0,11.0,60,0.00,,---,0.00,VWS V14.01,2013-02-18 02:45:00,
2013-02-17 20:49:00,52.6,39.1,30.16,South,171,5.0,6.0,60,0.00,,---,0.00,VWS V14.01,2013-02-18 02:49:00,
2013-02-17 20:54:00,52.6,39.1,30.16,SSW,195,5.0,9.0,60,0.00,,---,0.00,VWS V14.01,2013-02-18 02:54:00,
2013-02-17 20:59:00,52.5,39.5,30.16,South,170,4.0,9.0,61,0.00,,---,0.00,VWS V14.01,2013-02-18 02:59:00,
2013-02-17 21:00:00,52.5,39.5,30.16,South,169,6.0,9.0,61,0.00,,---,0.00,VWS V14.01,2013-02-18 03:00:00,
2013-02-17 21:04:00,52.2,39.6,30.16,South,179,5.0,7.0,62,0.00,,---,0.00,VWS V14.01,2013-02-18 03:04:00,
2013-02-17 21:09:00,52.0,39.4,30.16,South,169,5.0,8.0,62,0.00,,---,0.00,VWS V14.01,2013-02-18 03:09:00,
2013-02-17 21:14:00,51.9,39.3,30.17,SSE,164,4.0,8.0,62,0.00,,---,0.00,VWS V14.01,2013-02-18 03:14:00,
2013-02-17 21:15:00,51.9,39.3,30.17,South,171,4.0,8.0,62,0.00,,---,0.00,VWS V14.01,2013-02-18 03:15:00,
2013-02-17 21:19:00,51.7,39.1,30.17,South,171,2.0,7.0,62,0.00,,---,0.00,VWS V14.01,2013-02-18 03:19:00,
2013-02-17 21:24:00,51.6,39.4,30.17,South,171,2.0,8.0,63,0.00,,---,0.00,VWS V14.01,2013-02-18 03:24:00,
2013-02-17 21:29:00,51.4,39.7,30.17,South,184,6.0,8.0,64,0.00,,---,0.00,VWS V14.01,2013-02-18 03:29:00,
2013-02-17 21:30:00,51.4,39.7,30.17,South,184,6.0,8.0,64,0.00,,---,0.00,VWS V14.01,2013-02-18 03:30:00,
2013-02-17 21:34:00,51.3,40.0,30.17,South,182,0.0,7.0,65,0.00,,---,0.00,VWS V14.01,2013-02-18 03:34:00,
2013-02-17 21:39:00,51.1,39.8,30.17,South,182,0.0,7.0,65,0.00,,---,0.00,VWS V14.01,2013-02-18 03:39:00,
2013-02-17 21:44:00,50.7,39.8,30.17,South,182,0.0,0.0,66,0.00,,---,0.00,VWS V14.01,2013-02-18 03:44:00,
2013-02-17 21:45:00,50.7,39.8,30.17,South,182,0.0,7.0,66,0.00,,---,0.00,VWS V14.01,2013-02-18 03:45:00,
2013-02-17 21:49:00,50.2,39.7,30.17,SSE,159,3.0,4.0,67,0.00,,---,0.00,VWS V14.01,2013-02-18 03:49:00,
2013-02-17 21:54:00,50.1,39.6,30.17,South,170,0.0,6.0,67,0.00,,---,0.00,VWS V14.01,2013-02-18 03:54:00,
2013-02-17 21:59:00,50.1,40.0,30.16,South,178,0.0,2.0,68,0.00,,---,0.00,VWS V14.01,2013-02-18 03:59:00,
2013-02-17 22:00:00,50.1,40.0,30.16,South,178,2.0,6.0,68,0.00,,---,0.00,VWS V14.01,2013-02-18 04:00:00,
2013-02-17 22:04:00,49.9,39.8,30.16,South,180,0.0,5.0,68,0.00,,---,0.00,VWS V14.01,2013-02-18 04:04:00,
2013-02-17 22:09:00,49.9,40.2,30.16,South,180,0.0,5.0,69,0.00,,---,0.00,VWS V14.01,2013-02-18 04:09:00,
2013-02-17 22:14:00,49.8,40.0,30.16,South,175,0.0,0.0,69,0.00,,---,0.00,VWS V14.01,2013-02-18 04:14:00,
2013-02-17 22:15:00,49.8,40.0,30.16,South,175,0.0,8.0,69,0.00,,---,0.00,VWS V14.01,2013-02-18 04:15:00,
2013-02-17 22:19:00,49.5,40.1,30.16,South,171,0.0,6.0,70,0.00,,---,0.00,VWS V14.01,2013-02-18 04:19:00,
2013-02-17 22:24:00,49.4,40.4,30.16,South,170,0.0,6.0,71,0.00,,---,0.00,VWS V14.01,2013-02-18 04:24:00,
2013-02-17 22:30:00,49.2,40.2,30.16,SSW,192,0.0,0.0,71,0.00,,---,0.00,VWS V14.01,2013-02-18 04:30:00,
2013-02-17 22:35:00,49.2,40.2,30.16,South,171,0.0,1.0,71,0.00,,---,0.00,VWS V14.01,2013-02-18 04:35:00,
2013-02-17 22:40:00,48.9,39.9,30.16,South,173,0.0,3.0,71,0.00,,---,0.00,VWS V14.01,2013-02-18 04:40:00,
2013-02-17 22:45:00,48.8,40.2,30.16,South,186,1.0,4.0,72,0.00,,---,0.00,VWS V14.01,2013-02-18 04:45:00,
2013-02-17 22:50:00,48.6,40.0,30.16,South,186,0.0,4.0,72,0.00,,---,0.00,VWS V14.01,2013-02-18 04:50:00,
2013-02-17 22:55:00,48.5,39.9,30.16,South,186,0.0,4.0,72,0.00,,---,0.00,VWS V14.01,2013-02-18 04:55:00,
2013-02-17 23:00:00,48.3,40.1,30.15,South,186,0.0,0.0,73,0.00,,---,0.00,VWS V14.01,2013-02-18 05:00:00,
2013-02-17 23:01:00,48.2,40.0,30.15,South,186,0.0,0.0,73,0.00,,---,0.00,VWS V14.01,2013-02-18 05:01:00,
2013-02-17 23:06:00,48.0,40.1,30.15,SSE,167,0.0,2.0,74,0.00,,---,0.00,VWS V14.01,2013-02-18 05:06:00,
2013-02-17 23:11:00,47.9,40.0,30.15,SSE,150,0.0,2.0,74,0.00,,---,0.00,VWS V14.01,2013-02-18 05:11:00,
2013-02-17 23:15:00,47.6,39.7,30.15,SSE,150,0.0,2.0,74,0.00,,---,0.00,VWS V14.01,2013-02-18 05:15:00,
2013-02-17 23:16:00,47.4,39.9,30.15,SSE,150,0.0,0.0,75,0.00,,---,0.00,VWS V14.01,2013-02-18 05:16:00,
2013-02-17 23:21:00,47.0,39.8,30.15,SSE,150,0.0,3.0,76,0.00,,---,0.00,VWS V14.01,2013-02-18 05:21:00,
2013-02-17 23:26:00,46.8,39.7,30.15,SSE,150,0.0,3.0,76,0.00,,---,0.00,VWS V14.01,2013-02-18 05:26:00,
2013-02-17 23:30:00,46.7,39.5,30.15,SSE,150,0.0,3.0,76,0.00,,---,0.00,VWS V14.01,2013-02-18 05:30:00,
2013-02-17 23:31:00,46.5,39.4,30.15,SSE,150,0.0,1.0,76,0.00,,---,0.00,VWS V14.01,2013-02-18 05:31:00,
2013-02-17 23:37:00,46.1,39.3,30.15,SSE,150,0.0,1.0,77,0.00,,---,0.00,VWS V14.01,2013-02-18 05:37:00,
2013-02-17 23:42:00,45.8,39.0,30.15,SSE,150,0.0,3.0,77,0.00,,---,0.00,VWS V14.01,2013-02-18 05:42:00,
2013-02-17 23:45:00,45.7,38.9,30.15,SSE,150,0.0,3.0,77,0.00,,---,0.00,VWS V14.01,2013-02-18 05:45:00,
2013-02-17 23:47:00,45.5,38.7,30.15,SSE,150,0.0,2.0,77,0.00,,---,0.00,VWS V14.01,2013-02-18 05:47:00,
2013-02-17 23:52:00,45.2,38.8,30.15,SSE,150,0.0,3.0,78,0.00,,---,0.00,VWS V14.01,2013-02-18 05:52:00,
2013-02-17 23:57:00,44.9,38.8,30.15,SSE,150,0.0,3.0,79,0.00,,---,0.00,VWS V14.01,2013-02-18 05:57:00,